Weather in Lepekhinka

Russia / Saratov Oblast     50°38′40″N   46°55′04″E
temp.,
°C
wind,
m/s
gust,
m/s
humid.,
%
clouds,
%
prec.,
mm/h
press.,
hPa
HPBL,
m
6 may, thu
thu601:00+9w33625 0.0 101830
04:00+8wnw22654 0.0 101910
07:00+10s12605 0.0 102062
10:00+16s34435 0.0 10201090
13:00+18ssw44355 0.0 10192011
16:00+19ssw44337 0.0 10182275
19:00+18s354287 0.0 1018177
22:00+14sse4752100 0.0 1018144
7 may, fri
fri701:00+12sse3559100 0.0 101879
04:00+10sse4958100 0.0 1018159
07:00+11sse41057100 0.0 1018251
10:00+16s5741100 0.0 1018596
13:00+19s5634100 0.0 10181859
16:00+20ssw453783 0.0 10172187
19:00+18ssw3652100 0.0 1017171
22:00+15w3559100 0.0 1018100
8 may, sat
sat801:00+13ene367494 0.0 1018123
04:00+12se347116 0.0 101864
07:00+13sse346041 0.0 1018119
10:00+19s454030 0.0 1018857
13:00+22s56335 0.0 10172275
16:00+23s66325 0.0 10162364
19:00+21sse584264 0.0 1015329
22:00+16se5115390 0.0 1015179
9 may, sun
sun901:00+17se61446100 0.0 1013376
04:00+17sse71445100 0.0 1013376
07:00+16sse51253100 0.0 1012309
10:00+20s71239100 0.0 1012870
13:00+23s101332100 0.0 10112013
16:00+23s71134100 0.0 10102442
19:00+20se4947100 0.0 1009243
22:00+15w4872100 0.0 1010317
10 may, mon
mon1001:00+14s257997 0.0 1010204
04:00+11sw4581100 0.0 1012319
07:00+10sw3483100 0.3 1013352
10:00+9s3488100 2.6 1013417
13:00+10ssw2291100 4.3 1014323
16:00+9wsw4592100 7.3 1014211
19:00+8wsw3493100 1.1 1014213
22:00+8ssw2393100 1.8 1016200